BEIJING 1 1 28890U 05043A 26170.81700131 .00000524 00000+0 11036-3 0 9990 2 28890 98.2923 304.0445 0013288 274.7194 85.2490 14.63534449101034 HUANJING 1A (HJ-1A) 1 33320U 08041A 26170.86342483 .00001223 00000+0 15263-3 0 9995 2 33320 97.6685 156.5986 0020197 126.3666 233.9416 14.83992527958801 HUANJING 1B (HJ-1B) 1 33321U 08041B 26170.90117235 -.00000103 00000+0 -60818-5 0 9992 2 33321 97.6521 159.7982 0036274 172.0353 188.1445 14.83317865958816 YAOGAN-4 1 33446U 08061A 26170.73068558 .00000768 00000+0 10051-3 0 9993 2 33446 97.9306 104.2222 0015646 64.9236 295.3600 14.83204176946045 DEIMOS-1 1 35681U 09041A 26170.83162215 .00000580 00000+0 92871-4 0 9994 2 35681 97.7409 327.9442 0001773 127.9249 232.2121 14.75240585907273 UK-DMC 2 1 35683U 09041C 26170.80184666 .00000662 00000+0 10322-3 0 9998 2 35683 97.8848 305.7044 0001158 84.2018 275.9323 14.76039231906958 DMC3-FM1 1 40715U 15032A 26170.83193617 .00000043 00000+0 10827-4 0 9990 2 40715 97.6452 35.9026 0006847 52.6711 307.5128 14.85739067590307 DMC3-FM2 1 40716U 15032B 26170.85397825 .00000750 00000+0 92287-4 0 9995 2 40716 97.6507 37.4993 0007472 57.4201 302.7735 14.85747289590307 DMC3-FM3 1 40717U 15032C 26170.80997333 .00000642 00000+0 79875-4 0 9999 2 40717 97.6560 39.2122 0006757 57.7791 302.4079 14.85737871590307